sat.trackr.live / text

‹ back to catalog

STARLINK-2180

NORAD 47762 · 2021-017AS

PAYLOAD ACTIVE UNKNOWN

§ Identity

Operator
Country
US
Launch date
2021-03-04
Launch site
AFETR
Launch vehicle
Mass (kg)
RCS (m²)

Purposes: comms

External: N2YO · Heavens-Above · Gunter

§ Orbital elements

Epoch: 2026-05-25T04:13:32.034144Z

Period
91.76 min
Inclination
53.1578°
Eccentricity
0.0005891
Mean motion
15.69264610 rev/d
Perigee alt
357.0 km
Apogee alt
365.0 km
Semi-major
6,739.1 km
B*
6.9991e-4
RAAN
207.9771°
Arg perigee
346.1726°
Mean anomaly
13.9129°
Rev number
28,958

§ Raw data

STARLINK-21801 47762U 21017AS  26145.17606521  .00083565  00000+0  69991-3 0  99962 47762  53.1578 207.9771 0005891 346.1726  13.9129 15.69264610289589

JSON: /api/v1/satellites/47762 · /tle

For live sub-satellite position, see the globe view (requires WebGL).

§ Visibility from observer

Set your observer location to see the next 7 days of passes ≥ 10°. The values pass through the URL so the page stays shareable.

No JS? Fill the form by hand. The geolocation button needs JavaScript.